Location: Ferchesar
(52.6477°N, 12.4298°E)
Time: 09:17:08
(UTC+01:00)

ISS - Visible Passes

Search period start: 27 January 2021 00:00
Search period end: 06 February 2021 00:00
Orbit: 418 x 421 km, 51.6° (Epoch: 27 January)

Date Brightness Start Highest point End Pass type
(mag) Time Alt. Az. Time Alt. Az. Time Alt. Az.
27 Jan -3.6 18:00:37 10° WSW 18:04:00 68° S 18:06:15 19° E visible
27 Jan -1.8 19:37:22 10° W 19:39:13 30° W 19:39:13 30° W visible
28 Jan -3.8 18:50:02 10° W 18:53:25 74° S 18:53:50 63° SE visible
29 Jan -3.7 18:02:42 10° W 18:06:05 77° S 18:08:28 18° E visible
29 Jan -1.8 19:39:30 10° W 19:41:27 29° WSW 19:41:27 29° WSW visible
30 Jan -3.4 18:52:07 10° W 18:55:28 57° SSW 18:56:07 46° SSE visible
31 Jan -3.5 18:04:45 10° W 18:08:07 67° S 18:10:50 15° ESE visible
31 Jan -1.6 19:41:43 10° W 19:43:49 24° SW 19:43:49 24° SW visible
01 Feb -2.4 18:54:14 10° W 18:57:21 35° SSW 18:58:36 26° SSE visible
02 Feb -2.8 18:06:48 10° W 18:10:03 45° SSW 18:13:19 10° SE visible
02 Feb -1.0 19:44:26 10° WSW 19:46:17 14° SW 19:46:29 14° SW visible
03 Feb -1.3 18:56:34 10° W 18:59:05 19° SW 19:01:30 10° SSE visible
04 Feb -1.7 18:08:56 10° W 18:11:50 26° SSW 18:14:43 10° SSE visible
